Regional Weather Roundup
Issued by NWS

Home | Current Version | Previous Version | Graphics & Text | Print | Product List | Glossary On
Versions: 1 2 3 4 5 6 7 8 9 10 11 12 13 14 15 16 17 18 19 20 21 22 23 24 25 26 27 28 29 30 31 32 33 34 35 36 37 38 39 40 41 42 43 44 45 46 47 48 49 50
000
ASUS43 KLSX 042010
RWRMO

WEATHER SUMMARY FOR MISSOURI
NATIONAL WEATHER SERVICE SPRINGFIELD MO
300 PM CDT TUE AUG 04 2015

NOTE: "FAIR" INDICATES FEW OR NO CLOUDS BELOW 12,000 FEET WITH NO
       SIGNIFICANT WEATHER AND/OR OBSTRUCTIONS TO VISIBILITY.
       CURRENT SKY AND/OR WEATHER CONDITIONS ARE NOT AVAILABLE FOR
       CHILLICOTHE AND FARMINGTON.

MOZ001>031-035>038-043-044-053-054-042100-
...NORTHERN AND WESTERN MISSOURI...

CITY           SKY/WX    TMP DP  RH WIND       PRES   REMARKS
KANSAS CTY INT CLOUDY    82  71  69 E14G22    29.97F
KANSAS C DTWN  CLOUDY    84  71  65 E14       29.95F
LEE`S SUMMIT   CLOUDY    80  70  71 E14       29.98F
ST JOSEPH      CLOUDY    80  69  69 SE10      29.95F
CHILLICOTHE      N/A     80  68  66 E7        29.99F
KIRKSVILLE     PTSUNNY   74  66  76 SE5       30.01S

$$
MOZ066>068-077>081-088>096-101>105-042100-
...SOUTHWEST MISSOURI...

CITY           SKY/WX    TMP DP  RH WIND       PRES   REMARKS
SPRINGFIELD    CLOUDY    86  66  51 SW12      30.01S
JOPLIN         CLOUDY    84  70  62 W10       30.02R

$$
MOZ032>034-039>042-045>050-055>058-069>072-042100-
...CENTRAL MISSOURI...

CITY           SKY/WX    TMP DP  RH WIND       PRES   REMARKS
COLUMBIA       PTSUNNY   82  71  69 NE13      30.00F
JEFFERSON CITY CLOUDY    84  70  62 N10       29.97F
ROLLA          CLOUDY    89  68  49 NW6       29.99F HX  93
SEDALIA        CLOUDY    81  71  71 NE8       30.01F
WHITEMAN AFB   PTSUNNY   80  71  72 E10       29.97F
WARRENSBURG    CLOUDY    79  70  73 NE9       29.97F
OSAGE BEACH    CLOUDY    88  68  51 SW5       29.99F HX  91

$$
MOZ051-052-059>065-042100-
...EAST CENTRAL MISSOURI...

CITY           SKY/WX    TMP DP  RH WIND       PRES   REMARKS
ST LOUIS INTL  PTSUNNY   90  69  50 N13       29.99S HX  94
SPIRIT OF STL  PTSUNNY   90  71  53 NW6       29.97F HX  96
ST CHARLES     MOSUNNY   87  72  60 N16       29.99R HX  93

$$
MOZ072>076-082>087-097>100-106>115-042100-
...SOUTH CENTRAL AND SOUTHEAST MISSOURI...

CITY           SKY/WX    TMP DP  RH WIND       PRES   REMARKS
CAPE GIRARDEAU PTSUNNY   91  73  55 SW10      29.96F HX  99
FARMINGTON     PTSUNNY   88  70  55 CALM      30.04S HX  92
POPLAR BLUFF   PTSUNNY   93  73  52 S8        29.96F HX 102
WEST PLAINS    CLOUDY    88  67  49 S8        30.03F HX  91

$$


USA.gov is the U.S. government's official web portal to all federal, state and local government web resources and services.